User: anonymous   Login
Location: Bow
(51.5261°N, 0.0167°W)
Time: 00:43:10
(UTC+00:00)
Language:

MetOp-A - Orbit

View from above orbital plane
View from above orbital plane
View from above satellite
View from above satellite

Ground track
Ground track

The orbit data is extracted from the following two-line orbital elements,

1 29499U 06044A   20328.73480417  .00000014  00000-0  25624-4 0  9994
2 29499  98.5026   9.9026 0001413 118.5825 351.6801 14.21496009731517
Epoch (UTC): 23 November 2020 17:38:07
Eccentricity: 0.0001413
inclination: 98.5026°
perigee height: 819 km
apogee height: 821 km
right ascension of ascending node: 9.9026°
argument of perigee: 118.5825°
revolutions per day: 14.21496009
mean anomaly at epoch: 351.6801°
orbit number at epoch: 73151

The dashed part of the orbit path shows where the satellite is in the earth's shadow,  

DLR